#timestamp,LO_Frequency,Hit,StdDev 
1622104735.5,286046910.6,P
1622104755.3,286046910.7,P
1622104775.1,286046909.4,P
1622104795.9,286046910.0,Y
1622104815.7,286046999.3,P
1622104835.5,286046997.2,N
1622104855.4,286046997.0,N
1622104875.2,286046998.9,N
1622104895.1,286046999.5,N
1622104896.0,286046999.5,N
1622104915.8,286046998.8,N
1622104935.6,286046996.7,N
1622104955.5,286046999.2,N
1622104975.3,286046999.0,N
1622104995.1,286046999.1,N
1622105015.9,286046997.5,N
1622105035.7,286046997.9,N
1622105055.6,286046995.1,N
1622105075.4,286046995.7,N
1622105095.2,286046994.7,N
1622105115.1,286046994.5,N
1622105116.0,286046994.5,N
1622105135.8,286046994.3,N
1622105155.6,286046993.7,N
1622105175.5,286046992.3,N
1622105195.3,286046994.4,N
1622105215.2,286046992.0,N
1622105235.9,286046992.4,N
1622105255.7,286046991.2,N
1622105275.6,286046988.8,N
1622105295.4,286046991.6,N
1622105315.2,286046991.2,N
1622105335.1,286046991.4,N
1622105336.0,286046991.4,N
1622105355.8,286046990.6,Y
1622105375.7,286046995.7,P
1622105395.5,286046996.4,P
1622105415.3,286046995.8,P
1622105435.2,286046993.7,Y
1622105455.0,286046999.5,P
1622105455.9,286046999.5,N
1622105475.8,286046997.8,N
1622105495.6,286046997.4,N
1622105515.4,286046995.5,Y
1622105535.3,286046996.9,P
1622105555.1,286046999.3,N
1622105575.8,286046996.5,P
1622105595.7,286046995.0,Y
1622105615.5,286046999.4,P
1622105635.4,286047000.7,N
1622105655.2,286046996.6,N
1622105675.0,286046996.6,N
1622105675.9,286046996.6,N
1622105695.8,286046997.8,N
1622105715.6,286046999.5,N
1622105735.4,286046996.6,N
1622105755.3,286046998.6,N
1622105775.1,286046997.3,N
1622105795.9,286046999.0,N
1622105815.7,286046997.0,N
1622105835.5,286046996.8,N
1622105855.4,286046997.2,N
1622105875.2,286046997.7,N
1622105895.1,286046997.3,N
1622105896.0,286046997.3,N
1622105915.8,286046995.3,Y
1622105935.6,286046999.3,P
1622105955.5,286046998.6,N
1622105975.3,286046999.5,N
1622105995.1,286046999.6,N
